• In Belarus
  • List of Countries
  • For 7 days
  • Water Temperature
  • Satellite Maps
  • Weather Map
  • Weather Widgets
  • user-avatar
    Login

    Hourly Weather Nashavar

    Today, 21 July, Sunday

    Time Temperature Precipitation Wind Pressure Humidity
    00:00 +38°C° 0 mm 2 mps 724 mmHg 46%
    01:00 +36°C° 0 mm 1 mps 724 mmHg 47%
    02:00 +36°C° 0 mm 1 mps 724 mmHg 48%
    03:00 +35°C° 0.9 mm 1 mps 724 mmHg 52%
    04:00 +35°C° 0.9 mm 2 mps 723 mmHg 56%
    05:00 +34°C° 0.9 mm 2 mps 723 mmHg 59%
    06:00 +33°C° 1.3 mm 1 mps 724 mmHg 59%
    07:00 +33°C° 1.3 mm 1 mps 724 mmHg 58%
    08:00 +34°C° 1.3 mm 1 mps 725 mmHg 58%
    09:00 +35°C° 0.2 mm 1 mps 724 mmHg 53%
    10:00 +36°C° 0.2 mm 1 mps 724 mmHg 49%
    11:00 +37°C° 0.2 mm 1 mps 724 mmHg 45%
    12:00 +40°C° 0 mm 1 mps 724 mmHg 41%
    13:00 +41°C° 0 mm 2 mps 724 mmHg 37%
    14:00 +42°C° 0 mm 2 mps 724 mmHg 34%
    15:00 +42°C° 0 mm 2 mps 723 mmHg 33%
    16:00 +43°C° 0 mm 3 mps 723 mmHg 33%
    17:00 +43°C° 0 mm 4 mps 722 mmHg 32%
    18:00 +43°C° 0 mm 3 mps 722 mmHg 34%
    19:00 +42°C° 0 mm 3 mps 722 mmHg 36%
    20:00 +40°C° 0 mm 2 mps 722 mmHg 38%
    21:00 +40°C° 0 mm 2 mps 722 mmHg 40%
    22:00 +39°C° 0 mm 2 mps 723 mmHg 41%
    23:00 +39°C° 0 mm 1 mps 723 mmHg 42%

    Tomorrow, 22 July, Monday

    Time Temperature Precipitation Wind Pressure Humidity
    00:00 +37°C° 0.1 mm 1 mps 722 mmHg 44%
    01:00 +37°C° 0.1 mm 1 mps 722 mmHg 46%
    02:00 +36°C° 0.1 mm 1 mps 722 mmHg 47%
    03:00 +36°C° 0 mm 1 mps 722 mmHg 49%
    04:00 +35°C° 0 mm 1 mps 722 mmHg 50%
    05:00 +35°C° 0 mm 1 mps 722 mmHg 52%
    06:00 +36°C° 0 mm 1 mps 722 mmHg 50%
    07:00 +37°C° 0 mm 2 mps 723 mmHg 48%
    08:00 +38°C° 0 mm 2 mps 723 mmHg 46%
    09:00 +39°C° 0 mm 2 mps 723 mmHg 43%
    10:00 +40°C° 0 mm 2 mps 722 mmHg 40%
    11:00 +41°C° 0 mm 1 mps 722 mmHg 38%
    12:00 +41°C° 0 mm 2 mps 722 mmHg 35%
    13:00 +42°C° 0 mm 2 mps 722 mmHg 32%
    14:00 +43°C° 0 mm 2 mps 722 mmHg 30%
    15:00 +45°C° 0 mm 2 mps 721 mmHg 29%
    16:00 +45°C° 0 mm 3 mps 721 mmHg 27%
    17:00 +45°C° 0 mm 3 mps 720 mmHg 26%
    18:00 +44°C° 0 mm 3 mps 720 mmHg 29%
    19:00 +43°C° 0 mm 3 mps 721 mmHg 33%
    20:00 +42°C° 0 mm 3 mps 721 mmHg 36%
    21:00 +40°C° 0 mm 3 mps 721 mmHg 37%
    22:00 +40°C° 0 mm 2 mps 721 mmHg 39%
    23:00 +39°C° 0 mm 2 mps 722 mmHg 41%

    Day after tomorrow, 23 July, Tuesday

    Time Temperature Precipitation Wind Pressure Humidity
    00:00 +39°C° 0 mm 2 mps 722 mmHg 42%
    01:00 +38°C° 0 mm 2 mps 722 mmHg 43%
    02:00 +38°C° 0 mm 2 mps 721 mmHg 44%
    03:00 +37°C° 0 mm 2 mps 721 mmHg 46%
    04:00 +36°C° 0 mm 1 mps 721 mmHg 48%
    05:00 +35°C° 0 mm 1 mps 721 mmHg 50%
    06:00 +36°C° 0 mm 1 mps 721 mmHg 48%
    07:00 +37°C° 0 mm 1 mps 722 mmHg 45%
    08:00 +37°C° 0 mm 1 mps 722 mmHg 43%
    09:00 +40°C° 0 mm 1 mps 722 mmHg 40%
    10:00 +41°C° 0 mm 1 mps 722 mmHg 37%
    11:00 +42°C° 0 mm 1 mps 722 mmHg 35%
    12:00 +43°C° 0 mm 2 mps 722 mmHg 32%
    13:00 +45°C° 0 mm 2 mps 721 mmHg 30%
    14:00 +45°C° 0 mm 2 mps 721 mmHg 27%
    15:00 +46°C° 0 mm 2 mps 720 mmHg 26%
    16:00 +46°C° 0 mm 3 mps 720 mmHg 25%
    17:00 +47°C° 0 mm 3 mps 719 mmHg 24%
    18:00 +46°C° 0 mm 3 mps 719 mmHg 26%
    19:00 +45°C° 0 mm 3 mps 719 mmHg 28%
    20:00 +44°C° 0 mm 3 mps 719 mmHg 31%
    21:00 +42°C° 0 mm 2 mps 720 mmHg 33%
    22:00 +41°C° 0 mm 2 mps 720 mmHg 35%
    23:00 +40°C° 0 mm 2 mps 720 mmHg 38%

    24 July, Wednesday

    Time Temperature Precipitation Wind Pressure Humidity
    00:00 +40°C° 0 mm 2 mps 720 mmHg 39%
    01:00 +39°C° 0 mm 2 mps 719 mmHg 40%
    02:00 +39°C° 0 mm 2 mps 719 mmHg 42%
    03:00 +38°C° 0 mm 2 mps 719 mmHg 43%
    04:00 +38°C° 0 mm 2 mps 719 mmHg 45%
    05:00 +37°C° 0 mm 2 mps 719 mmHg 46%
    06:00 +38°C° 0 mm 2 mps 720 mmHg 45%
    07:00 +39°C° 0 mm 2 mps 720 mmHg 44%
    08:00 +39°C° 0 mm 2 mps 720 mmHg 42%
    09:00 +40°C° 0 mm 2 mps 720 mmHg 39%
    10:00 +41°C° 0 mm 1 mps 720 mmHg 36%
    11:00 +43°C° 0 mm 1 mps 720 mmHg 33%
    12:00 +44°C° 0 mm 1 mps 720 mmHg 30%
    13:00 +44°C° 0 mm 1 mps 719 mmHg 27%
    14:00 +45°C° 0 mm 1 mps 719 mmHg 24%
    15:00 +46°C° 0 mm 1 mps 718 mmHg 24%
    16:00 +47°C° 0 mm 2 mps 718 mmHg 23%
    17:00 +47°C° 0 mm 2 mps 718 mmHg 22%
    18:00 +47°C° 0 mm 2 mps 718 mmHg 23%
    19:00 +46°C° 0 mm 2 mps 718 mmHg 25%
    20:00 +45°C° 0 mm 2 mps 718 mmHg 26%
    21:00 +43°C° 0 mm 2 mps 718 mmHg 29%
    22:00 +42°C° 0 mm 2 mps 719 mmHg 32%
    23:00 +41°C° 0 mm 2 mps 719 mmHg 35%

    25 July, Thursday

    Time Temperature Precipitation Wind Pressure Humidity
    00:00 +41°C° 0 mm 2 mps 719 mmHg 37%
    01:00 +40°C° 0 mm 2 mps 719 mmHg 39%
    02:00 +40°C° 0 mm 1 mps 719 mmHg 41%
    03:00 +39°C° 0.6 mm 2 mps 719 mmHg 44%
    04:00 +38°C° 0.6 mm 3 mps 719 mmHg 48%
    05:00 +37°C° 0.6 mm 3 mps 719 mmHg 51%
    06:00 +37°C° 0.5 mm 3 mps 719 mmHg 52%
    07:00 +37°C° 0.5 mm 3 mps 719 mmHg 53%
    08:00 +37°C° 0.5 mm 3 mps 720 mmHg 54%
    09:00 +37°C° 0.1 mm 4 mps 720 mmHg 53%
    10:00 +38°C° 0.1 mm 4 mps 720 mmHg 53%
    11:00 +39°C° 0.1 mm 5 mps 721 mmHg 52%
    12:00 +40°C° 0 mm 5 mps 720 mmHg 51%
    13:00 +40°C° 0 mm 5 mps 720 mmHg 51%
    14:00 +40°C° 0 mm 4 mps 720 mmHg 50%
    15:00 +40°C° 0 mm 4 mps 719 mmHg 48%
    16:00 +41°C° 0 mm 4 mps 719 mmHg 47%
    17:00 +41°C° 0 mm 4 mps 719 mmHg 46%
    18:00 +40°C° 0.1 mm 4 mps 719 mmHg 47%
    19:00 +40°C° 0.1 mm 4 mps 719 mmHg 48%
    20:00 +38°C° 0.1 mm 4 mps 720 mmHg 49%
    21:00 +38°C° 0.5 mm 4 mps 720 mmHg 53%
    22:00 +37°C° 0.5 mm 3 mps 720 mmHg 56%
    23:00 +36°C° 0.5 mm 3 mps 720 mmHg 60%

    26 July, Friday

    Time Temperature Precipitation Wind Pressure Humidity
    00:00 +35°C° 1.9 mm 3 mps 720 mmHg 64%
    01:00 +34°C° 1.9 mm 2 mps 720 mmHg 67%
    02:00 +32°C° 1.9 mm 2 mps 720 mmHg 71%
    03:00 +32°C° 1 mm 2 mps 720 mmHg 72%
    04:00 +32°C° 1 mm 2 mps 720 mmHg 74%
    05:00 +31°C° 1 mm 2 mps 720 mmHg 75%
    06:00 +31°C° 1.2 mm 3 mps 721 mmHg 78%
    07:00 +30°C° 1.2 mm 3 mps 721 mmHg 80%
    08:00 +29°C° 1.2 mm 3 mps 721 mmHg 83%
    09:00 +30°C° 0.9 mm 3 mps 722 mmHg 81%
    10:00 +30°C° 0.9 mm 3 mps 722 mmHg 80%
    11:00 +30°C° 0.9 mm 3 mps 722 mmHg 78%
    12:00 +30°C° 0.3 mm 3 mps 722 mmHg 78%
    13:00 +30°C° 0.3 mm 3 mps 722 mmHg 77%
    14:00 +31°C° 0.3 mm 3 mps 722 mmHg 77%
    15:00 +31°C° 0.2 mm 3 mps 722 mmHg 75%
    16:00 +31°C° 0.2 mm 3 mps 721 mmHg 73%
    17:00 +31°C° 0.2 mm 3 mps 721 mmHg 72%
    18:00 +31°C° 0.6 mm 2 mps 721 mmHg 73%
    19:00 +31°C° 0.6 mm 2 mps 721 mmHg 75%
    20:00 +30°C° 0.6 mm 2 mps 721 mmHg 76%
    21:00 +30°C° 1.2 mm 2 mps 722 mmHg 77%
    22:00 +30°C° 1.2 mm 1 mps 722 mmHg 78%
    23:00 +30°C° 1.2 mm 1 mps 722 mmHg 79%
    Show more